Tracking 31027 objects as of 19-Jul-2025
HD Live streaming from Space Station
objects crossing your sky now

GOES 1 AKM

Track GOES 1 AKM now!


NORAD ID: 20962
Int'l Code: 1975-100F
Perigee: 34,204.7 km
Apogee: 36,464.4 km
Inclination: 3.1 °
Period: 1,412.7 minutes
Semi major axis: 41705 km
RCS: 0.3981 m2 (medium)
Launch date: October 16, 1975
Source: United States (US)
Launch site: AIR FORCE EASTERN TEST RANGE (AFETR)

Note: This is a ROCKET BODY
Your satellite tracking list
EUTE 33A (EB 3)
Track 1 satellite(s)




NASA's NSSDC Master Catalog

Two Line Element Set (TLE):
1 20962U 75100F   25199.05219851 -.00000180  00000-0  00000-0 0  9999
2 20962   3.1418 261.6030 0270911  78.0912 285.1745  1.01932300132741
Source of the keplerian elements: AFSPC